Wetterdaten: Mittwoch, 09.10.2013
Datum Zeit Temperatur Luftfeuchte Luftdruck Regen Wind Richtung Richtung Taupunkt Windchill Windben
09.10.2013 00:00 9,7 C 91 % 1025,1 hPa 0,0 l/m 0,0 km/h (0 Bft) N-NO 22 8,3 C 9,8 C 0,0 km/h (0 Bft)
09.10.2013 00:05 9,6 C 91 % 1025,1 hPa 0,0 l/m 0,0 km/h (0 Bft) NO 45 8,2 C 9,8 C 0,0 km/h (0 Bft)
09.10.2013 00:10 9,6 C 91 % 1025,1 hPa 0,0 l/m 0,0 km/h (0 Bft) SO 135 8,2 C 9,8 C 0,0 km/h (0 Bft)
09.10.2013 00:15 9,6 C 91 % 1025,1 hPa 0,0 l/m 0,0 km/h (0 Bft) NO 45 8,2 C 9,8 C 0,0 km/h (0 Bft)
09.10.2013 00:19 9,6 C 91 % 1025,1 hPa 0,0 l/m 0,0 km/h (0 Bft) O-SO 112 8,2 C 9,8 C 0,0 km/h (0 Bft)
09.10.2013 00:20 9,6 C 91 % 1025,1 hPa 0,0 l/m 0,0 km/h (0 Bft) O-SO 112 8,2 C 9,8 C 0,0 km/h (0 Bft)
09.10.2013 00:25 9,6 C 91 % 1024,9 hPa 0,0 l/m 0,0 km/h (0 Bft) O-SO 112 8,2 C 9,8 C 0,0 km/h (0 Bft)
09.10.2013 00:30 9,6 C 91 % 1024,9 hPa 0,0 l/m 0,0 km/h (0 Bft) N-NO 22 8,2 C 9,8 C 0,0 km/h (0 Bft)
09.10.2013 00:35 9,6 C 91 % 1024,9 hPa 0,0 l/m 0,0 km/h (0 Bft) S-SW 202 8,2 C 9,8 C 0,0 km/h (0 Bft)
09.10.2013 00:40 9,6 C 91 % 1024,9 hPa 0,0 l/m 0,2 km/h (0 Bft) NO 45 8,2 C 9,8 C 1,9 km/h (1 Bft)
09.10.2013 00:45 9,6 C 91 % 1024,8 hPa 0,0 l/m 0,2 km/h (0 Bft) O-SO 112 8,2 C 9,8 C 0,0 km/h (0 Bft)
09.10.2013 00:50 9,6 C 91 % 1024,8 hPa 0,0 l/m 0,2 km/h (0 Bft) SO 135 8,2 C 9,8 C 0,0 km/h (0 Bft)
09.10.2013 00:55 9,6 C 91 % 1024,8 hPa 0,0 l/m 0,0 km/h (0 Bft) O 90 8,2 C 9,8 C 0,0 km/h (0 Bft)
09.10.2013 01:00 9,6 C 91 % 1024,8 hPa 0,0 l/m 0,0 km/h (0 Bft) O 90 8,2 C 9,8 C 0,0 km/h (0 Bft)
09.10.2013 01:05 9,5 C 91 % 1024,8 hPa 0,0 l/m 0,0 km/h (0 Bft) O 90 8,1 C 9,7 C 0,0 km/h (0 Bft)
09.10.2013 01:10 9,5 C 91 % 1024,8 hPa 0,0 l/m 0,0 km/h (0 Bft) O-SO 112 8,1 C 9,7 C 0,0 km/h (0 Bft)
09.10.2013 01:15 9,5 C 91 % 1024,8 hPa 0,0 l/m 0,0 km/h (0 Bft) O-SO 112 8,1 C 9,6 C 0,0 km/h (0 Bft)
09.10.2013 01:20 9,5 C 91 % 1024,8 hPa 0,0 l/m 0,0 km/h (0 Bft) O 90 8,1 C 9,6 C 0,0 km/h (0 Bft)
09.10.2013 01:25 9,5 C 91 % 1024,7 hPa 0,0 l/m 0,0 km/h (0 Bft) O 90 8,1 C 9,6 C 0,0 km/h (0 Bft)
09.10.2013 01:30 9,5 C 91 % 1024,7 hPa 0,0 l/m 0,0 km/h (0 Bft) O 90 8,1 C 9,6 C 0,0 km/h (0 Bft)
09.10.2013 01:35 9,5 C 91 % 1024,7 hPa 0,0 l/m 0,0 km/h (0 Bft) O 90 8,1 C 9,6 C 0,0 km/h (0 Bft)
09.10.2013 01:40 9,5 C 91 % 1024,7 hPa 0,0 l/m 0,0 km/h (0 Bft) O-SO 112 8,1 C 9,6 C 0,0 km/h (0 Bft)
09.10.2013 01:45 9,5 C 91 % 1024,7 hPa 0,0 l/m 0,0 km/h (0 Bft) O 90 8,1 C 9,6 C 0,0 km/h (0 Bft)
09.10.2013 01:50 9,5 C 92 % 1024,7 hPa 0,0 l/m 0,0 km/h (0 Bft) O 90 8,3 C 9,6 C 0,0 km/h (0 Bft)
09.10.2013 01:55 9,5 C 92 % 1024,7 hPa 0,0 l/m 0,0 km/h (0 Bft) O 90 8,3 C 9,5 C 0,0 km/h (0 Bft)
09.10.2013 02:00 9,5 C 92 % 1024,7 hPa 0,0 l/m 0,0 km/h (0 Bft) SO 135 8,3 C 9,5 C 0,0 km/h (0 Bft)
09.10.2013 02:05 9,4 C 92 % 1024,8 hPa 0,0 l/m 0,0 km/h (0 Bft) S 180 8,2 C 9,5 C 0,0 km/h (0 Bft)
09.10.2013 02:10 9,4 C 92 % 1024,8 hPa 0,0 l/m 0,0 km/h (0 Bft) S 180 8,2 C 9,5 C 0,0 km/h (0 Bft)
09.10.2013 02:15 9,4 C 92 % 1024,8 hPa 0,0 l/m 0,0 km/h (0 Bft) S 180 8,2 C 9,5 C 0,0 km/h (0 Bft)
09.10.2013 02:20 9,4 C 92 % 1024,8 hPa 0,0 l/m 0,0 km/h (0 Bft) S 180 8,2 C 9,5 C 0,0 km/h (0 Bft)
09.10.2013 02:25 9,4 C 92 % 1024,7 hPa 0,0 l/m 0,0 km/h (0 Bft) O 90 8,2 C 9,5 C 0,0 km/h (0 Bft)
09.10.2013 02:30 9,4 C 92 % 1024,7 hPa 0,0 l/m 0,0 km/h (0 Bft) O 90 8,2 C 9,5 C 0,0 km/h (0 Bft)
09.10.2013 02:35 9,4 C 92 % 1024,7 hPa 0,0 l/m 0,5 km/h (0 Bft) O 90 8,2 C 9,5 C 2,3 km/h (1 Bft)
09.10.2013 02:40 9,4 C 92 % 1024,7 hPa 0,0 l/m 1,1 km/h (1 Bft) O-NO 67 8,2 C 9,5 C 1,9 km/h (1 Bft)
09.10.2013 02:45 9,4 C 92 % 1024,7 hPa 0,0 l/m 1,6 km/h (1 Bft) O-NO 67 8,2 C 9,5 C 2,4 km/h (1 Bft)
09.10.2013 02:50 9,4 C 92 % 1024,7 hPa 0,0 l/m 1,0 km/h (0 Bft) O 90 8,2 C 9,5 C 0,0 km/h (0 Bft)
09.10.2013 02:55 9,4 C 92 % 1024,7 hPa 0,0 l/m 0,2 km/h (0 Bft) NO 45 8,2 C 9,5 C 0,0 km/h (0 Bft)
09.10.2013 03:00 9,4 C 92 % 1024,7 hPa 0,0 l/m 0,0 km/h (0 Bft) NO 45 8,2 C 9,5 C 0,0 km/h (0 Bft)
09.10.2013 03:05 9,4 C 92 % 1024,6 hPa 0,0 l/m 0,0 km/h (0 Bft) O 90 8,2 C 9,5 C 0,0 km/h (0 Bft)
09.10.2013 03:10 9,4 C 92 % 1024,6 hPa 0,0 l/m 0,0 km/h (0 Bft) O-SO 112 8,2 C 9,5 C 0,0 km/h (0 Bft)
09.10.2013 03:15 9,4 C 92 % 1024,6 hPa 0,0 l/m 0,0 km/h (0 Bft) O 90 8,2 C 9,5 C 0,0 km/h (0 Bft)
09.10.2013 03:20 9,4 C 92 % 1024,6 hPa 0,0 l/m 0,0 km/h (0 Bft) NO 45 8,2 C 9,5 C 0,0 km/h (0 Bft)
09.10.2013 03:25 9,4 C 92 % 1024,4 hPa 0,0 l/m 0,0 km/h (0 Bft) O-SO 112 8,2 C 9,5 C 0,0 km/h (0 Bft)
09.10.2013 03:30 9,4 C 92 % 1024,4 hPa 0,0 l/m 0,0 km/h (0 Bft) O-SO 112 8,2 C 9,5 C 0,0 km/h (0 Bft)
09.10.2013 03:35 9,4 C 92 % 1024,4 hPa 0,0 l/m 0,0 km/h (0 Bft) O 90 8,2 C 9,5 C 0,0 km/h (0 Bft)
09.10.2013 03:40 9,4 C 92 % 1024,4 hPa 0,0 l/m 0,0 km/h (0 Bft) O 90 8,2 C 9,4 C 0,0 km/h (0 Bft)
09.10.2013 03:45 9,4 C 92 % 1024,3 hPa 0,0 l/m 0,2 km/h (0 Bft) O-NO 67 8,2 C 9,4 C 1,9 km/h (1 Bft)
09.10.2013 03:50 9,4 C 92 % 1024,3 hPa 0,0 l/m 0,6 km/h (0 Bft) O-NO 67 8,2 C 9,5 C 1,9 km/h (1 Bft)
09.10.2013 03:55 9,4 C 92 % 1024,3 hPa 0,0 l/m 0,6 km/h (0 Bft) O 90 8,2 C 9,5 C 0,0 km/h (0 Bft)
09.10.2013 04:00 9,4 C 92 % 1024,3 hPa 0,0 l/m 0,5 km/h (0 Bft) O 90 8,2 C 9,5 C 1,8 km/h (1 Bft)
09.10.2013 04:05 9,4 C 92 % 1024,3 hPa 0,0 l/m 0,6 km/h (0 Bft) O-NO 67 8,2 C 9,5 C 1,6 km/h (1 Bft)
09.10.2013 04:10 9,4 C 92 % 1024,3 hPa 0,0 l/m 0,8 km/h (0 Bft) O 90 8,2 C 9,5 C 0,0 km/h (0 Bft)
09.10.2013 04:15 9,4 C 92 % 1024,3 hPa 0,0 l/m 0,5 km/h (0 Bft) NO 45 8,2 C 9,5 C 0,0 km/h (0 Bft)
09.10.2013 04:20 9,4 C 92 % 1024,3 hPa 0,0 l/m 0,0 km/h (0 Bft) O-SO 112 8,2 C 9,5 C 0,0 km/h (0 Bft)
09.10.2013 04:25 9,4 C 92 % 1024,2 hPa 0,0 l/m 0,0 km/h (0 Bft) NO 45 8,2 C 9,5 C 0,0 km/h (0 Bft)
09.10.2013 04:30 9,4 C 92 % 1024,2 hPa 0,0 l/m 0,0 km/h (0 Bft) O 90 8,2 C 9,4 C 0,0 km/h (0 Bft)
09.10.2013 04:35 9,4 C 92 % 1024,2 hPa 0,0 l/m 0,0 km/h (0 Bft) N-NO 22 8,2 C 9,4 C 0,0 km/h (0 Bft)
09.10.2013 04:40 9,4 C 92 % 1024,2 hPa 0,0 l/m 0,0 km/h (0 Bft) N-NO 22 8,2 C 9,4 C 0,0 km/h (0 Bft)
09.10.2013 04:45 9,4 C 92 % 1024,1 hPa 0,0 l/m 0,0 km/h (0 Bft) N-NO 22 8,2 C 9,4 C 0,0 km/h (0 Bft)
09.10.2013 04:50 9,4 C 92 % 1024,1 hPa 0,0 l/m 0,0 km/h (0 Bft) N-NO 22 8,2 C 9,4 C 0,0 km/h (0 Bft)
09.10.2013 04:55 9,4 C 92 % 1024,1 hPa 0,0 l/m 0,0 km/h (0 Bft) N-NO 22 8,2 C 9,4 C 0,0 km/h (0 Bft)
09.10.2013 05:00 9,4 C 92 % 1024,1 hPa 0,0 l/m 0,0 km/h (0 Bft) O-SO 112 8,2 C 9,4 C 0,0 km/h (0 Bft)
09.10.2013 05:05 9,4 C 92 % 1024,1 hPa 0,0 l/m 0,0 km/h (0 Bft) O-SO 112 8,2 C 9,4 C 0,0 km/h (0 Bft)
09.10.2013 05:10 9,4 C 92 % 1024,1 hPa 0,0 l/m 0,0 km/h (0 Bft) NO 45 8,2 C 9,4 C 0,0 km/h (0 Bft)
09.10.2013 05:15 9,4 C 92 % 1024,1 hPa 0,0 l/m 0,0 km/h (0 Bft) NO 45 8,2 C 9,4 C 0,0 km/h (0 Bft)
09.10.2013 05:20 9,4 C 92 % 1024,1 hPa 0,0 l/m 0,0 km/h (0 Bft) O-SO 112 8,2 C 9,5 C 0,0 km/h (0 Bft)
09.10.2013 05:25 9,4 C 92 % 1024,0 hPa 0,0 l/m 0,0 km/h (0 Bft) O-SO 112 8,2 C 9,5 C 0,0 km/h (0 Bft)
09.10.2013 05:30 9,4 C 92 % 1024,0 hPa 0,0 l/m 0,0 km/h (0 Bft) O-SO 112 8,2 C 9,5 C 0,0 km/h (0 Bft)
09.10.2013 05:35 9,4 C 92 % 1024,0 hPa 0,0 l/m 0,0 km/h (0 Bft) O-SO 112 8,2 C 9,5 C 0,0 km/h (0 Bft)
09.10.2013 05:40 9,4 C 93 % 1024,0 hPa 0,0 l/m 0,0 km/h (0 Bft) O-SO 112 8,3 C 9,5 C 0,0 km/h (0 Bft)
09.10.2013 05:45 9,4 C 93 % 1023,9 hPa 0,0 l/m 0,0 km/h (0 Bft) O-SO 112 8,3 C 9,5 C 0,0 km/h (0 Bft)
09.10.2013 05:50 9,4 C 93 % 1023,9 hPa 0,0 l/m 0,0 km/h (0 Bft) O-SO 112 8,3 C 9,5 C 0,0 km/h (0 Bft)
09.10.2013 05:55 9,4 C 93 % 1023,9 hPa 0,0 l/m 0,0 km/h (0 Bft) O-SO 112 8,3 C 9,5 C 0,0 km/h (0 Bft)
09.10.2013 06:00 9,4 C 93 % 1023,9 hPa 0,0 l/m 0,0 km/h (0 Bft) O-SO 112 8,3 C 9,5 C 0,0 km/h (0 Bft)
09.10.2013 06:05 9,4 C 93 % 1023,8 hPa 0,0 l/m 0,0 km/h (0 Bft) O 90 8,3 C 9,5 C 0,0 km/h (0 Bft)
09.10.2013 06:10 9,4 C 93 % 1023,8 hPa 0,0 l/m 0,0 km/h (0 Bft) O-NO 67 8,3 C 9,5 C 0,0 km/h (0 Bft)
09.10.2013 06:15 9,3 C 93 % 1023,8 hPa 0,0 l/m 0,0 km/h (0 Bft) O-NO 67 8,2 C 9,4 C 0,0 km/h (0 Bft)
09.10.2013 06:18 9,3 C 93 % 1023,8 hPa 0,0 l/m 0,0 km/h (0 Bft) NO 45 8,2 C 9,4 C 0,0 km/h (0 Bft)
09.10.2013 06:20 9,3 C 93 % 1023,8 hPa 0,0 l/m 0,0 km/h (0 Bft) NO 45 8,2 C 9,4 C 0,0 km/h (0 Bft)
09.10.2013 06:25 9,3 C 93 % 1023,6 hPa 0,0 l/m 0,0 km/h (0 Bft) NO 45 8,2 C 9,4 C 0,0 km/h (0 Bft)
09.10.2013 06:30 9,3 C 93 % 1023,6 hPa 0,0 l/m 0,0 km/h (0 Bft) O-NO 67 8,2 C 9,4 C 0,0 km/h (0 Bft)
09.10.2013 06:35 9,3 C 93 % 1023,6 hPa 0,0 l/m 0,0 km/h (0 Bft) NO 45 8,2 C 9,4 C 0,0 km/h (0 Bft)
09.10.2013 06:40 9,3 C 93 % 1023,6 hPa 0,0 l/m 0,0 km/h (0 Bft) O 90 8,2 C 9,4 C 0,0 km/h (0 Bft)
09.10.2013 06:45 9,3 C 93 % 1023,4 hPa 0,0 l/m 0,0 km/h (0 Bft) O 90 8,2 C 9,4 C 0,0 km/h (0 Bft)
09.10.2013 06:50 9,3 C 93 % 1023,4 hPa 0,0 l/m 0,0 km/h (0 Bft) O-NO 67 8,2 C 9,4 C 0,0 km/h (0 Bft)
09.10.2013 06:55 9,3 C 93 % 1023,4 hPa 0,0 l/m 0,0 km/h (0 Bft) O 90 8,2 C 9,3 C 0,0 km/h (0 Bft)
09.10.2013 07:00 9,2 C 93 % 1023,4 hPa 0,0 l/m 0,0 km/h (0 Bft) O-NO 67 8,1 C 9,3 C 0,0 km/h (0 Bft)
09.10.2013 07:05 9,2 C 93 % 1023,3 hPa 0,0 l/m 0,0 km/h (0 Bft) NO 45 8,1 C 9,3 C 0,0 km/h (0 Bft)
09.10.2013 07:10 9,2 C 93 % 1023,3 hPa 0,0 l/m 0,0 km/h (0 Bft) O-NO 67 8,1 C 9,3 C 0,0 km/h (0 Bft)
09.10.2013 07:15 9,2 C 93 % 1023,3 hPa 0,0 l/m 0,0 km/h (0 Bft) O 90 8,1 C 9,3 C 0,0 km/h (0 Bft)
09.10.2013 07:20 9,2 C 93 % 1023,3 hPa 0,0 l/m 0,0 km/h (0 Bft) NO 45 8,1 C 9,3 C 0,0 km/h (0 Bft)
09.10.2013 07:25 9,2 C 93 % 1023,2 hPa 0,0 l/m 0,0 km/h (0 Bft) O 90 8,1 C 9,3 C 0,0 km/h (0 Bft)
09.10.2013 07:30 9,2 C 93 % 1023,2 hPa 0,0 l/m 0,0 km/h (0 Bft) NO 45 8,1 C 9,2 C 0,0 km/h (0 Bft)
09.10.2013 07:35 9,1 C 93 % 1023,2 hPa 0,0 l/m 0,0 km/h (0 Bft) O-NO 67 8,0 C 9,3 C 0,0 km/h (0 Bft)
09.10.2013 07:40 9,1 C 94 % 1023,2 hPa 0,0 l/m 0,0 km/h (0 Bft) O-NO 67 8,2 C 9,3 C 0,0 km/h (0 Bft)
09.10.2013 07:45 9,2 C 94 % 1023,1 hPa 0,0 l/m 0,0 km/h (0 Bft) O 90 8,3 C 9,2 C 0,0 km/h (0 Bft)
09.10.2013 07:50 9,2 C 94 % 1023,1 hPa 0,0 l/m 0,0 km/h (0 Bft) O 90 8,3 C 9,2 C 0,0 km/h (0 Bft)
09.10.2013 07:55 9,2 C 94 % 1023,1 hPa 0,0 l/m 0,0 km/h (0 Bft) NO 45 8,3 C 9,3 C 0,0 km/h (0 Bft)
09.10.2013 08:00 9,3 C 94 % 1023,1 hPa 0,0 l/m 0,0 km/h (0 Bft) O-SO 112 8,4 C 9,3 C 0,0 km/h (0 Bft)
09.10.2013 08:05 9,3 C 94 % 1023,0 hPa 0,0 l/m 0,0 km/h (0 Bft) NO 45 8,4 C 9,4 C 0,0 km/h (0 Bft)
09.10.2013 08:10 9,3 C 94 % 1023,0 hPa 0,0 l/m 0,0 km/h (0 Bft) NO 45 8,4 C 9,4 C 0,0 km/h (0 Bft)
09.10.2013 08:15 9,3 C 94 % 1023,0 hPa 0,0 l/m 0,0 km/h (0 Bft) NO 45 8,4 C 9,5 C 0,0 km/h (0 Bft)
09.10.2013 08:20 9,4 C 94 % 1023,0 hPa 0,0 l/m 0,0 km/h (0 Bft) NO 45 8,5 C 9,5 C 0,0 km/h (0 Bft)
09.10.2013 08:25 9,4 C 94 % 1023,0 hPa 0,0 l/m 0,0 km/h (0 Bft) NO 45 8,5 C 9,5 C 0,0 km/h (0 Bft)
09.10.2013 08:30 9,4 C 94 % 1023,0 hPa 0,0 l/m 0,0 km/h (0 Bft) O-SO 112 8,5 C 9,5 C 0,0 km/h (0 Bft)
09.10.2013 08:35 9,4 C 94 % 1023,0 hPa 0,0 l/m 0,0 km/h (0 Bft) O-SO 112 8,5 C 9,5 C 0,0 km/h (0 Bft)
09.10.2013 08:40 9,5 C 94 % 1023,0 hPa 0,0 l/m 0,0 km/h (0 Bft) O-SO 112 8,6 C 9,5 C 0,0 km/h (0 Bft)
09.10.2013 08:45 9,5 C 95 % 1023,1 hPa 0,0 l/m 0,0 km/h (0 Bft) O-SO 112 8,7 C 9,6 C 0,0 km/h (0 Bft)
09.10.2013 08:50 9,6 C 95 % 1023,1 hPa 0,0 l/m 0,0 km/h (0 Bft) O-SO 112 8,8 C 9,7 C 0,0 km/h (0 Bft)
09.10.2013 08:55 9,6 C 95 % 1023,1 hPa 0,0 l/m 0,0 km/h (0 Bft) O-SO 112 8,8 C 9,8 C 0,0 km/h (0 Bft)
09.10.2013 09:00 9,7 C 95 % 1023,1 hPa 0,0 l/m 0,0 km/h (0 Bft) O-SO 112 8,9 C 9,9 C 0,0 km/h (0 Bft)
09.10.2013 09:05 9,8 C 95 % 1023,2 hPa 0,0 l/m 0,0 km/h (0 Bft) N-NO 22 9,0 C 10,0 C 0,0 km/h (0 Bft)
09.10.2013 09:10 10,0 C 95 % 1023,2 hPa 0,0 l/m 0,0 km/h (0 Bft) N-NO 22 9,2 C 10,1 C 0,0 km/h (0 Bft)
09.10.2013 09:15 10,3 C 95 % 1023,2 hPa 0,0 l/m 0,0 km/h (0 Bft) N-NO 22 9,5 C 10,3 C 0,0 km/h (0 Bft)
09.10.2013 09:20 10,3 C 95 % 1023,2 hPa 0,0 l/m 0,0 km/h (0 Bft) N-NO 22 9,5 C 10,5 C 0,0 km/h (0 Bft)
09.10.2013 09:25 10,3 C 95 % 1023,2 hPa 0,0 l/m 0,0 km/h (0 Bft) N-NO 22 9,5 C 10,6 C 0,0 km/h (0 Bft)
09.10.2013 09:30 10,3 C 95 % 1023,2 hPa 0,0 l/m 0,0 km/h (0 Bft) N-NO 22 9,5 C 10,7 C 0,0 km/h (0 Bft)
09.10.2013 09:35 10,5 C 95 % 1023,2 hPa 0,0 l/m 0,0 km/h (0 Bft) N-NW 337 9,7 C 10,8 C 0,0 km/h (0 Bft)
09.10.2013 09:40 10,5 C 95 % 1023,2 hPa 0,0 l/m 0,0 km/h (0 Bft) W-NW 292 9,7 C 10,8 C 0,0 km/h (0 Bft)
09.10.2013 09:45 10,5 C 95 % 1023,2 hPa 0,0 l/m 0,3 km/h (0 Bft) N-NW 337 9,7 C 10,8 C 2,1 km/h (1 Bft)
09.10.2013 09:50 10,4 C 94 % 1023,2 hPa 0,0 l/m 0,6 km/h (0 Bft) N-NO 22 9,5 C 10,8 C 0,0 km/h (0 Bft)
09.10.2013 09:55 10,6 C 94 % 1023,2 hPa 0,0 l/m 0,5 km/h (0 Bft) W-NW 292 9,7 C 10,8 C 0,0 km/h (0 Bft)
09.10.2013 10:00 10,5 C 94 % 1023,2 hPa 0,0 l/m 0,3 km/h (0 Bft) W-NW 292 9,6 C 10,8 C 0,0 km/h (0 Bft)
09.10.2013 10:05 10,7 C 94 % 1023,1 hPa 0,0 l/m 0,6 km/h (0 Bft) W 270 9,8 C 10,9 C 1,9 km/h (1 Bft)
09.10.2013 10:10 10,7 C 94 % 1023,1 hPa 0,0 l/m 0,3 km/h (0 Bft) W 270 9,8 C 11,0 C 0,0 km/h (0 Bft)
09.10.2013 10:15 10,8 C 94 % 1023,1 hPa 0,0 l/m 0,3 km/h (0 Bft) S-SW 202 9,9 C 11,2 C 0,0 km/h (0 Bft)
09.10.2013 10:20 11,0 C 94 % 1023,1 hPa 0,0 l/m 0,2 km/h (0 Bft) W-SW 247 10,1 C 11,3 C 0,0 km/h (0 Bft)
09.10.2013 10:25 11,1 C 94 % 1023,2 hPa 0,0 l/m 0,0 km/h (0 Bft) S-SW 202 10,2 C 11,5 C 0,0 km/h (0 Bft)
09.10.2013 10:30 11,0 C 94 % 1023,2 hPa 0,0 l/m 0,0 km/h (0 Bft) W-NW 292 10,1 C 11,7 C 0,0 km/h (0 Bft)
09.10.2013 10:35 11,0 C 94 % 1023,2 hPa 0,0 l/m 0,0 km/h (0 Bft) W 270 10,1 C 11,8 C 1,6 km/h (1 Bft)
09.10.2013 10:40 11,2 C 94 % 1023,2 hPa 0,0 l/m 0,2 km/h (0 Bft) SW 225 10,3 C 11,9 C 0,0 km/h (0 Bft)
09.10.2013 10:45 11,2 C 94 % 1023,2 hPa 0,0 l/m 0,2 km/h (0 Bft) S 180 10,3 C 12,1 C 0,0 km/h (0 Bft)
09.10.2013 10:50 11,4 C 94 % 1023,2 hPa 0,0 l/m 0,3 km/h (0 Bft) W-SW 247 10,5 C 12,2 C 0,0 km/h (0 Bft)
09.10.2013 10:55 11,6 C 94 % 1023,2 hPa 0,0 l/m 0,3 km/h (0 Bft) S-SW 202 10,7 C 12,4 C 0,0 km/h (0 Bft)
09.10.2013 11:00 11,8 C 94 % 1023,2 hPa 0,0 l/m 0,0 km/h (0 Bft) W 270 10,9 C 12,6 C 0,0 km/h (0 Bft)
09.10.2013 11:05 11,6 C 92 % 1023,2 hPa 0,0 l/m 0,0 km/h (0 Bft) NO 45 10,3 C 13,1 C 0,0 km/h (0 Bft)
09.10.2013 11:10 11,5 C 91 % 1023,2 hPa 0,0 l/m 0,2 km/h (0 Bft) N 360 10,1 C 13,2 C 0,0 km/h (0 Bft)
09.10.2013 11:15 11,5 C 90 % 1023,2 hPa 0,0 l/m 0,3 km/h (0 Bft) N-NO 22 9,9 C 13,0 C 0,0 km/h (0 Bft)
09.10.2013 11:20 11,5 C 90 % 1023,2 hPa 0,0 l/m 0,2 km/h (0 Bft) N-NW 337 9,9 C 12,9 C 0,0 km/h (0 Bft)
09.10.2013 11:25 11,3 C 89 % 1023,0 hPa 0,0 l/m 0,3 km/h (0 Bft) NW 315 9,6 C 12,5 C 2,3 km/h (1 Bft)
09.10.2013 11:30 11,4 C 89 % 1023,0 hPa 0,0 l/m 0,8 km/h (0 Bft) W-NW 292 9,7 C 12,4 C 3,5 km/h (1 Bft)
09.10.2013 11:35 11,3 C 89 % 1023,0 hPa 0,0 l/m 0,8 km/h (0 Bft) W-SW 247 9,6 C 12,1 C 0,0 km/h (0 Bft)
09.10.2013 11:40 11,4 C 90 % 1023,0 hPa 0,0 l/m 0,6 km/h (0 Bft) W-NW 292 9,8 C 12,1 C 3,9 km/h (1 Bft)
09.10.2013 11:45 11,8 C 90 % 1023,0 hPa 0,0 l/m 1,3 km/h (1 Bft) W-SW 247 10,2 C 12,3 C 0,0 km/h (0 Bft)
09.10.2013 11:50 12,1 C 89 % 1023,0 hPa 0,0 l/m 1,4 km/h (1 Bft) W-NW 292 10,3 C 12,7 C 0,0 km/h (0 Bft)
09.10.2013 11:55 12,2 C 89 % 1023,0 hPa 0,0 l/m 0,5 km/h (0 Bft) N-NW 337 10,4 C 13,1 C 0,0 km/h (0 Bft)
09.10.2013 12:00 12,4 C 89 % 1023,0 hPa 0,0 l/m 0,8 km/h (0 Bft) W 270 10,6 C 13,4 C 2,9 km/h (1 Bft)
09.10.2013 12:05 12,5 C 89 % 1022,9 hPa 0,0 l/m 1,0 km/h (0 Bft) S-SO 157 10,7 C 13,4 C 0,0 km/h (0 Bft)
09.10.2013 12:10 12,6 C 89 % 1022,9 hPa 0,0 l/m 1,1 km/h (1 Bft) SW 225 10,8 C 13,6 C 0,0 km/h (0 Bft)
09.10.2013 12:15 12,8 C 89 % 1022,9 hPa 0,0 l/m 0,6 km/h (0 Bft) W-SW 247 11,0 C 13,9 C 1,8 km/h (1 Bft)
09.10.2013 12:18 12,9 C 89 % 1022,9 hPa 0,0 l/m 0,3 km/h (0 Bft) S 180 11,1 C 14,1 C 2,6 km/h (1 Bft)
09.10.2013 12:20 12,9 C 89 % 1022,9 hPa 0,0 l/m 0,3 km/h (0 Bft) S 180 11,1 C 14,1 C 2,6 km/h (1 Bft)
09.10.2013 12:25 12,6 C 88 % 1022,6 hPa 0,0 l/m 1,3 km/h (1 Bft) S-SW 202 10,7 C 13,9 C 3,1 km/h (1 Bft)
09.10.2013 12:30 12,5 C 89 % 1022,6 hPa 0,0 l/m 1,6 km/h (1 Bft) S 180 10,7 C 13,6 C 3,1 km/h (1 Bft)
09.10.2013 12:35 12,6 C 89 % 1022,6 hPa 0,0 l/m 1,4 km/h (1 Bft) W-SW 247 10,8 C 13,5 C 4,0 km/h (1 Bft)
09.10.2013 12:40 12,6 C 89 % 1022,6 hPa 0,0 l/m 1,8 km/h (1 Bft) W-SW 247 10,8 C 13,5 C 2,7 km/h (1 Bft)
09.10.2013 12:45 12,7 C 88 % 1022,6 hPa 0,0 l/m 1,8 km/h (1 Bft) SO 135 10,8 C 13,6 C 0,0 km/h (0 Bft)
09.10.2013 12:50 12,8 C 88 % 1022,6 hPa 0,0 l/m 1,0 km/h (0 Bft) SO 135 10,9 C 13,8 C 0,0 km/h (0 Bft)
09.10.2013 12:55 13,1 C 88 % 1022,6 hPa 0,0 l/m 0,5 km/h (0 Bft) SO 135 11,2 C 14,1 C 0,0 km/h (0 Bft)
09.10.2013 13:00 13,2 C 88 % 1022,6 hPa 0,0 l/m 0,8 km/h (0 Bft) S 180 11,3 C 14,3 C 0,0 km/h (0 Bft)
09.10.2013 13:05 13,3 C 87 % 1022,3 hPa 0,0 l/m 1,3 km/h (1 Bft) W 270 11,2 C 14,4 C 4,7 km/h (1 Bft)
09.10.2013 13:10 13,4 C 86 % 1022,3 hPa 0,0 l/m 1,6 km/h (1 Bft) W-SW 247 11,1 C 14,6 C 2,6 km/h (1 Bft)
09.10.2013 13:15 13,6 C 85 % 1022,3 hPa 0,0 l/m 1,4 km/h (1 Bft) SW 225 11,1 C 14,9 C 4,8 km/h (1 Bft)
09.10.2013 13:20 13,8 C 86 % 1022,3 hPa 0,0 l/m 1,3 km/h (1 Bft) S 180 11,5 C 15,1 C 5,8 km/h (2 Bft)
09.10.2013 13:25 13,8 C 84 % 1022,4 hPa 0,0 l/m 2,1 km/h (1 Bft) S 180 11,1 C 15,1 C 3,4 km/h (1 Bft)
09.10.2013 13:30 13,7 C 81 % 1022,4 hPa 0,0 l/m 2,7 km/h (1 Bft) S-SW 202 10,5 C 15,1 C 0,0 km/h (0 Bft)
09.10.2013 13:35 14,0 C 84 % 1022,4 hPa 0,0 l/m 2,3 km/h (1 Bft) S 180 11,3 C 15,3 C 3,4 km/h (1 Bft)
09.10.2013 13:40 14,0 C 83 % 1022,4 hPa 0,0 l/m 1,6 km/h (1 Bft) S 180 11,2 C 15,4 C 0,0 km/h (0 Bft)
09.10.2013 13:45 14,2 C 83 % 1022,4 hPa 0,0 l/m 1,9 km/h (1 Bft) W-SW 247 11,4 C 15,7 C 3,5 km/h (1 Bft)
09.10.2013 13:50 14,0 C 83 % 1022,4 hPa 0,0 l/m 1,6 km/h (1 Bft) W-SW 247 11,2 C 15,6 C 2,4 km/h (1 Bft)
09.10.2013 13:55 14,2 C 84 % 1022,4 hPa 0,0 l/m 2,3 km/h (1 Bft) W-SW 247 11,5 C 15,4 C 1,9 km/h (1 Bft)
09.10.2013 14:00 14,2 C 83 % 1022,4 hPa 0,0 l/m 2,6 km/h (1 Bft) S-SW 202 11,4 C 15,5 C 4,8 km/h (1 Bft)
09.10.2013 14:05 14,0 C 82 % 1021,9 hPa 0,0 l/m 2,7 km/h (1 Bft) S 180 11,0 C 15,4 C 3,5 km/h (1 Bft)
09.10.2013 14:10 13,6 C 79 % 1021,9 hPa 0,0 l/m 3,5 km/h (1 Bft) S 180 10,0 C 15,1 C 5,0 km/h (1 Bft)
09.10.2013 14:15 13,7 C 80 % 1021,9 hPa 0,0 l/m 3,2 km/h (1 Bft) W-SW 247 10,3 C 14,8 C 8,7 km/h (2 Bft)
09.10.2013 14:20 13,8 C 80 % 1021,9 hPa 0,0 l/m 3,1 km/h (1 Bft) W-SW 247 10,4 C 14,8 C 5,1 km/h (1 Bft)
09.10.2013 14:25 13,7 C 78 % 1021,4 hPa 0,0 l/m 3,7 km/h (1 Bft) S-SW 202 9,9 C 14,7 C 6,0 km/h (2 Bft)
09.10.2013 14:30 13,8 C 79 % 1021,4 hPa 0,0 l/m 3,5 km/h (1 Bft) SW 225 10,2 C 14,6 C 2,9 km/h (1 Bft)
09.10.2013 14:35 13,8 C 79 % 1021,4 hPa 0,0 l/m 3,2 km/h (1 Bft) S-SW 202 10,2 C 14,5 C 3,1 km/h (1 Bft)
09.10.2013 14:40 13,7 C 79 % 1021,4 hPa 0,0 l/m 2,7 km/h (1 Bft) S 180 10,1 C 14,4 C 3,1 km/h (1 Bft)
09.10.2013 14:45 13,6 C 78 % 1021,1 hPa 0,0 l/m 2,6 km/h (1 Bft) S-SW 202 9,8 C 14,4 C 4,5 km/h (1 Bft)
09.10.2013 14:50 13,8 C 76 % 1021,1 hPa 0,0 l/m 3,4 km/h (1 Bft) S 180 9,6 C 14,4 C 6,3 km/h (2 Bft)
09.10.2013 14:55 13,5 C 75 % 1021,1 hPa 0,0 l/m 3,7 km/h (1 Bft) W-SW 247 9,2 C 14,3 C 6,6 km/h (2 Bft)
09.10.2013 15:00 13,3 C 75 % 1021,1 hPa 0,0 l/m 3,7 km/h (1 Bft) O-SO 112 9,0 C 14,1 C 4,2 km/h (1 Bft)
09.10.2013 15:05 13,0 C 77 % 1021,1 hPa 0,0 l/m 4,2 km/h (1 Bft) W-SW 247 9,1 C 13,7 C 12,9 km/h (3 Bft)
09.10.2013 15:10 13,0 C 78 % 1021,1 hPa 0,0 l/m 2,9 km/h (1 Bft) W-NW 292 9,3 C 13,6 C 2,4 km/h (1 Bft)
09.10.2013 15:15 12,8 C 79 % 1021,1 hPa 0,0 l/m 1,6 km/h (1 Bft) W-NW 292 9,2 C 13,6 C 4,0 km/h (1 Bft)
09.10.2013 15:20 12,6 C 80 % 1021,1 hPa 0,0 l/m 1,9 km/h (1 Bft) N-NW 337 9,2 C 13,4 C 0,0 km/h (0 Bft)
09.10.2013 15:25 12,5 C 80 % 1020,8 hPa 0,0 l/m 1,6 km/h (1 Bft) NW 315 9,1 C 13,4 C 3,7 km/h (1 Bft)
09.10.2013 15:30 12,6 C 81 % 1020,8 hPa 0,0 l/m 1,4 km/h (1 Bft) W-NW 292 9,4 C 13,3 C 0,0 km/h (0 Bft)
09.10.2013 15:35 12,6 C 82 % 1020,8 hPa 0,0 l/m 1,0 km/h (0 Bft) NW 315 9,6 C 13,3 C 1,9 km/h (1 Bft)
09.10.2013 15:40 12,3 C 81 % 1020,8 hPa 0,0 l/m 1,0 km/h (0 Bft) W-NW 292 9,1 C 13,2 C 4,5 km/h (1 Bft)
09.10.2013 15:45 12,2 C 82 % 1020,6 hPa 0,0 l/m 1,4 km/h (1 Bft) N-NW 337 9,2 C 12,9 C 0,0 km/h (0 Bft)
09.10.2013 15:50 12,1 C 82 % 1020,6 hPa 0,0 l/m 1,0 km/h (0 Bft) N-NW 337 9,1 C 12,8 C 0,0 km/h (0 Bft)
09.10.2013 15:55 12,0 C 82 % 1020,6 hPa 0,0 l/m 0,6 km/h (0 Bft) N-NW 337 9,0 C 12,7 C 2,3 km/h (1 Bft)
09.10.2013 16:00 11,9 C 83 % 1020,6 hPa 0,0 l/m 1,4 km/h (1 Bft) N-NW 337 9,1 C 12,7 C 2,1 km/h (1 Bft)
09.10.2013 16:05 12,0 C 83 % 1020,5 hPa 0,0 l/m 1,8 km/h (1 Bft) N-NO 22 9,2 C 12,7 C 2,7 km/h (1 Bft)
09.10.2013 16:10 12,1 C 83 % 1020,5 hPa 0,0 l/m 1,4 km/h (1 Bft) N-NW 337 9,3 C 12,7 C 0,0 km/h (0 Bft)
09.10.2013 16:15 12,1 C 83 % 1020,5 hPa 0,0 l/m 1,4 km/h (1 Bft) N-NO 22 9,3 C 12,7 C 3,1 km/h (1 Bft)
09.10.2013 16:20 11,9 C 83 % 1020,5 hPa 0,0 l/m 1,1 km/h (1 Bft) N-NW 337 9,1 C 12,6 C 0,0 km/h (0 Bft)
09.10.2013 16:25 11,9 C 83 % 1020,2 hPa 0,0 l/m 0,6 km/h (0 Bft) N-NO 22 9,1 C 12,5 C 0,0 km/h (0 Bft)
09.10.2013 16:30 11,9 C 83 % 1020,2 hPa 0,0 l/m 0,2 km/h (0 Bft) N-NW 337 9,1 C 12,6 C 2,1 km/h (1 Bft)
09.10.2013 16:35 12,0 C 83 % 1020,2 hPa 0,0 l/m 0,5 km/h (0 Bft) N-NO 22 9,2 C 12,6 C 0,0 km/h (0 Bft)
09.10.2013 16:40 11,9 C 83 % 1020,2 hPa 0,0 l/m 0,6 km/h (0 Bft) N-NO 22 9,1 C 12,7 C 0,0 km/h (0 Bft)
09.10.2013 16:45 11,8 C 84 % 1020,1 hPa 0,0 l/m 0,5 km/h (0 Bft) NW 315 9,2 C 12,6 C 0,0 km/h (0 Bft)
09.10.2013 16:50 11,8 C 84 % 1020,1 hPa 0,0 l/m 0,2 km/h (0 Bft) N-NW 337 9,2 C 12,5 C 1,6 km/h (1 Bft)
09.10.2013 16:55 11,7 C 84 % 1020,1 hPa 0,0 l/m 0,5 km/h (0 Bft) NW 315 9,1 C 12,4 C 1,9 km/h (1 Bft)
09.10.2013 17:00 11,7 C 84 % 1020,1 hPa 0,0 l/m 0,6 km/h (0 Bft) N-NW 337 9,1 C 12,3 C 0,0 km/h (0 Bft)
09.10.2013 17:05 11,6 C 85 % 1019,8 hPa 0,0 l/m 0,6 km/h (0 Bft) N 360 9,2 C 12,2 C 0,0 km/h (0 Bft)
09.10.2013 17:10 11,6 C 85 % 1019,8 hPa 0,0 l/m 0,3 km/h (0 Bft) N 360 9,2 C 12,2 C 0,0 km/h (0 Bft)
09.10.2013 17:15 11,5 C 85 % 1019,8 hPa 0,0 l/m 0,0 km/h (0 Bft) N 360 9,1 C 12,0 C 0,0 km/h (0 Bft)
09.10.2013 17:20 11,5 C 85 % 1019,8 hPa 0,0 l/m 0,0 km/h (0 Bft) N-NW 337 9,1 C 11,9 C 0,0 km/h (0 Bft)
09.10.2013 17:25 11,4 C 85 % 1019,6 hPa 0,0 l/m 0,0 km/h (0 Bft) N-NO 22 9,0 C 11,8 C 0,0 km/h (0 Bft)
09.10.2013 17:30 11,4 C 86 % 1019,6 hPa 0,0 l/m 0,0 km/h (0 Bft) N-NO 22 9,1 C 11,7 C 0,0 km/h (0 Bft)
09.10.2013 17:35 11,3 C 86 % 1019,6 hPa 0,0 l/m 0,0 km/h (0 Bft) N-NO 22 9,0 C 11,5 C 0,0 km/h (0 Bft)
09.10.2013 17:40 11,2 C 86 % 1019,6 hPa 0,0 l/m 0,0 km/h (0 Bft) NO 45 8,9 C 11,5 C 0,0 km/h (0 Bft)
09.10.2013 17:45 11,2 C 86 % 1019,6 hPa 0,0 l/m 0,0 km/h (0 Bft) NO 45 8,9 C 11,3 C 0,0 km/h (0 Bft)
09.10.2013 17:50 11,2 C 87 % 1019,6 hPa 0,0 l/m 0,0 km/h (0 Bft) NO 45 9,1 C 11,2 C 0,0 km/h (0 Bft)
09.10.2013 17:55 11,1 C 87 % 1019,6 hPa 0,7 l/m 0,0 km/h (0 Bft) W-SW 247 9,0 C 11,1 C 0,0 km/h (0 Bft)
09.10.2013 18:00 10,9 C 87 % 1019,6 hPa 0,0 l/m 0,8 km/h (0 Bft) W-SW 247 8,8 C 11,0 C 0,0 km/h (0 Bft)
09.10.2013 18:05 10,7 C 88 % 1019,3 hPa 0,0 l/m 1,3 km/h (1 Bft) W-SW 247 8,8 C 10,8 C 3,9 km/h (1 Bft)
09.10.2013 18:10 10,5 C 88 % 1019,3 hPa 0,0 l/m 1,1 km/h (1 Bft) S-SW 202 8,6 C 10,7 C 2,3 km/h (1 Bft)
09.10.2013 18:15 10,4 C 88 % 1019,3 hPa 0,7 l/m 1,0 km/h (0 Bft) W-SW 247 8,5 C 10,5 C 0,0 km/h (0 Bft)
09.10.2013 18:18 10,4 C 89 % 1019,3 hPa 0,0 l/m 0,2 km/h (0 Bft) W-SW 247 8,7 C 10,5 C 0,0 km/h (0 Bft)
09.10.2013 18:20 10,4 C 89 % 1019,3 hPa 0,0 l/m 0,2 km/h (0 Bft) W-SW 247 8,7 C 10,5 C 0,0 km/h (0 Bft)
09.10.2013 18:25 10,3 C 89 % 1019,3 hPa 0,0 l/m 0,0 km/h (0 Bft) S-SW 202 8,6 C 10,4 C 0,0 km/h (0 Bft)
09.10.2013 18:30 10,3 C 89 % 1019,3 hPa 0,0 l/m 0,0 km/h (0 Bft) SW 225 8,6 C 10,4 C 0,0 km/h (0 Bft)
09.10.2013 18:35 10,3 C 90 % 1019,3 hPa 0,0 l/m 0,0 km/h (0 Bft) S-SW 202 8,7 C 10,3 C 0,0 km/h (0 Bft)
09.10.2013 18:40 10,2 C 91 % 1019,3 hPa 0,0 l/m 0,0 km/h (0 Bft) S-SW 202 8,8 C 10,3 C 0,0 km/h (0 Bft)
09.10.2013 18:45 10,2 C 92 % 1019,2 hPa 0,0 l/m 0,0 km/h (0 Bft) S 180 9,0 C 10,3 C 0,0 km/h (0 Bft)
09.10.2013 18:50 10,2 C 92 % 1019,2 hPa 0,0 l/m 0,0 km/h (0 Bft) S 180 9,0 C 10,3 C 0,0 km/h (0 Bft)
09.10.2013 18:55 10,1 C 92 % 1019,2 hPa 0,0 l/m 0,0 km/h (0 Bft) S 180 8,9 C 10,3 C 0,0 km/h (0 Bft)
09.10.2013 19:00 10,1 C 92 % 1019,2 hPa 0,0 l/m 0,0 km/h (0 Bft) S 180 8,9 C 10,2 C 0,0 km/h (0 Bft)
09.10.2013 19:05 10,1 C 93 % 1019,4 hPa 0,0 l/m 0,0 km/h (0 Bft) S 180 9,0 C 10,2 C 0,0 km/h (0 Bft)
09.10.2013 19:10 10,1 C 93 % 1019,4 hPa 0,0 l/m 0,0 km/h (0 Bft) S 180 9,0 C 10,2 C 0,0 km/h (0 Bft)
09.10.2013 19:15 10,1 C 93 % 1019,4 hPa 0,0 l/m 0,2 km/h (0 Bft) S 180 9,0 C 10,2 C 0,0 km/h (0 Bft)
09.10.2013 19:20 10,1 C 93 % 1019,4 hPa 0,0 l/m 0,2 km/h (0 Bft) S 180 9,0 C 10,2 C 0,0 km/h (0 Bft)
09.10.2013 19:25 10,1 C 93 % 1019,0 hPa 0,0 l/m 0,0 km/h (0 Bft) S 180 9,0 C 10,2 C 0,0 km/h (0 Bft)
09.10.2013 19:30 10,0 C 93 % 1019,0 hPa 0,0 l/m 0,0 km/h (0 Bft) S 180 8,9 C 10,2 C 0,0 km/h (0 Bft)
09.10.2013 19:35 10,0 C 94 % 1019,0 hPa 0,0 l/m 0,0 km/h (0 Bft) S-SO 157 9,1 C 10,1 C 0,0 km/h (0 Bft)
09.10.2013 19:40 9,9 C 94 % 1019,0 hPa 0,0 l/m 0,0 km/h (0 Bft) S-SO 157 9,0 C 10,1 C 0,0 km/h (0 Bft)
09.10.2013 19:45 9,9 C 94 % 1018,9 hPa 0,0 l/m 0,0 km/h (0 Bft) S-SO 157 9,0 C 10,1 C 0,0 km/h (0 Bft)
09.10.2013 19:50 9,9 C 94 % 1018,9 hPa 0,0 l/m 0,0 km/h (0 Bft) S-SO 157 9,0 C 10,1 C 0,0 km/h (0 Bft)
09.10.2013 19:55 9,9 C 94 % 1018,9 hPa 0,0 l/m 0,0 km/h (0 Bft) S-SO 157 9,0 C 10,0 C 0,0 km/h (0 Bft)
09.10.2013 20:00 9,9 C 94 % 1018,9 hPa 0,0 l/m 0,0 km/h (0 Bft) S-SO 157 9,0 C 10,0 C 0,0 km/h (0 Bft)
09.10.2013 20:05 9,8 C 94 % 1018,9 hPa 0,0 l/m 0,2 km/h (0 Bft) O-SO 112 8,9 C 10,0 C 0,0 km/h (0 Bft)
09.10.2013 20:10 9,8 C 94 % 1018,9 hPa 0,0 l/m 0,2 km/h (0 Bft) O 90 8,9 C 10,0 C 0,0 km/h (0 Bft)
09.10.2013 20:15 9,8 C 94 % 1018,9 hPa 0,0 l/m 0,0 km/h (0 Bft) O 90 8,9 C 10,0 C 0,0 km/h (0 Bft)
09.10.2013 20:20 9,8 C 94 % 1018,9 hPa 0,0 l/m 0,0 km/h (0 Bft) O 90 8,9 C 10,0 C 0,0 km/h (0 Bft)
09.10.2013 20:25 9,8 C 94 % 1018,8 hPa 0,0 l/m 0,0 km/h (0 Bft) O 90 8,9 C 10,0 C 0,0 km/h (0 Bft)
09.10.2013 20:30 9,8 C 94 % 1018,8 hPa 0,0 l/m 0,0 km/h (0 Bft) O 90 8,9 C 10,0 C 0,0 km/h (0 Bft)
09.10.2013 20:35 9,8 C 94 % 1018,8 hPa 0,0 l/m 0,0 km/h (0 Bft) O 90 8,9 C 9,9 C 0,0 km/h (0 Bft)
09.10.2013 20:40 9,8 C 95 % 1018,8 hPa 0,0 l/m 0,0 km/h (0 Bft) O 90 9,0 C 9,9 C 0,0 km/h (0 Bft)
09.10.2013 20:45 9,8 C 95 % 1018,6 hPa 0,0 l/m 0,0 km/h (0 Bft) O 90 9,0 C 9,9 C 0,0 km/h (0 Bft)
09.10.2013 20:50 9,8 C 95 % 1018,6 hPa 0,0 l/m 0,0 km/h (0 Bft) O 90 9,0 C 9,9 C 0,0 km/h (0 Bft)
09.10.2013 20:55 9,9 C 95 % 1018,6 hPa 0,0 l/m 0,0 km/h (0 Bft) O 90 9,1 C 10,0 C 0,0 km/h (0 Bft)
09.10.2013 21:00 9,9 C 95 % 1018,6 hPa 0,0 l/m 0,0 km/h (0 Bft) O 90 9,1 C 10,0 C 0,0 km/h (0 Bft)
09.10.2013 21:05 9,9 C 95 % 1018,5 hPa 0,0 l/m 0,0 km/h (0 Bft) O 90 9,1 C 10,0 C 0,0 km/h (0 Bft)
09.10.2013 21:10 9,9 C 95 % 1018,5 hPa 0,0 l/m 0,0 km/h (0 Bft) O 90 9,1 C 10,0 C 0,0 km/h (0 Bft)
09.10.2013 21:15 9,9 C 95 % 1018,5 hPa 0,0 l/m 0,0 km/h (0 Bft) O 90 9,1 C 10,0 C 0,0 km/h (0 Bft)
09.10.2013 21:20 9,9 C 95 % 1018,5 hPa 0,0 l/m 0,0 km/h (0 Bft) SO 135 9,1 C 10,0 C 0,0 km/h (0 Bft)
09.10.2013 21:25 9,9 C 95 % 1018,3 hPa 0,0 l/m 0,0 km/h (0 Bft) O 90 9,1 C 10,1 C 0,0 km/h (0 Bft)
09.10.2013 21:30 9,9 C 95 % 1018,3 hPa 0,0 l/m 0,0 km/h (0 Bft) O-SO 112 9,1 C 10,1 C 0,0 km/h (0 Bft)
09.10.2013 21:35 9,9 C 95 % 1018,3 hPa 0,0 l/m 0,3 km/h (0 Bft) SO 135 9,1 C 10,0 C 0,0 km/h (0 Bft)
09.10.2013 21:40 9,9 C 95 % 1018,3 hPa 0,0 l/m 0,8 km/h (0 Bft) S 180 9,1 C 10,0 C 3,1 km/h (1 Bft)
09.10.2013 21:45 9,9 C 95 % 1018,4 hPa 0,0 l/m 0,6 km/h (0 Bft) O-SO 112 9,1 C 10,0 C 0,0 km/h (0 Bft)
09.10.2013 21:50 9,9 C 95 % 1018,4 hPa 0,0 l/m 1,0 km/h (0 Bft) O 90 9,1 C 10,0 C 3,2 km/h (1 Bft)
09.10.2013 21:55 9,9 C 95 % 1018,4 hPa 0,0 l/m 1,0 km/h (0 Bft) O-SO 112 9,1 C 10,0 C 0,0 km/h (0 Bft)
09.10.2013 22:00 9,9 C 95 % 1018,4 hPa 0,0 l/m 0,3 km/h (0 Bft) S-SO 157 9,1 C 10,0 C 0,0 km/h (0 Bft)
09.10.2013 22:05 9,9 C 95 % 1018,4 hPa 0,0 l/m 1,0 km/h (0 Bft) SO 135 9,1 C 10,0 C 2,7 km/h (1 Bft)
09.10.2013 22:10 9,9 C 95 % 1018,4 hPa 0,0 l/m 1,0 km/h (0 Bft) S-SW 202 9,1 C 9,9 C 1,9 km/h (1 Bft)
09.10.2013 22:15 9,8 C 95 % 1018,4 hPa 0,0 l/m 0,3 km/h (0 Bft) SO 135 9,0 C 9,9 C 0,0 km/h (0 Bft)
09.10.2013 22:20 9,8 C 95 % 1018,4 hPa 0,0 l/m 1,0 km/h (0 Bft) N-NO 22 9,0 C 9,9 C 4,8 km/h (1 Bft)
09.10.2013 22:25 9,8 C 95 % 1018,3 hPa 0,0 l/m 0,8 km/h (0 Bft) O-SO 112 9,0 C 9,9 C 0,0 km/h (0 Bft)
09.10.2013 22:30 9,8 C 95 % 1018,3 hPa 0,0 l/m 0,8 km/h (0 Bft) SO 135 9,0 C 9,9 C 3,1 km/h (1 Bft)
09.10.2013 22:35 9,8 C 95 % 1018,3 hPa 0,0 l/m 1,1 km/h (1 Bft) O-SO 112 9,0 C 9,9 C 2,1 km/h (1 Bft)
09.10.2013 22:40 9,8 C 95 % 1018,3 hPa 0,0 l/m 1,4 km/h (1 Bft) S-SW 202 9,0 C 9,9 C 0,0 km/h (0 Bft)
09.10.2013 22:45 9,8 C 95 % 1018,2 hPa 0,0 l/m 1,0 km/h (0 Bft) SO 135 9,0 C 9,9 C 2,4 km/h (1 Bft)
09.10.2013 22:50 9,7 C 95 % 1018,2 hPa 0,0 l/m 0,8 km/h (0 Bft) SO 135 8,9 C 9,8 C 6,8 km/h (2 Bft)
09.10.2013 22:55 9,6 C 95 % 1018,2 hPa 0,0 l/m 1,0 km/h (0 Bft) S-SO 157 8,8 C 9,8 C 0,0 km/h (0 Bft)
09.10.2013 23:00 9,6 C 95 % 1018,2 hPa 0,0 l/m 0,6 km/h (0 Bft) S-SW 202 8,8 C 9,7 C 2,4 km/h (1 Bft)
09.10.2013 23:05 9,5 C 95 % 1017,9 hPa 0,0 l/m 0,3 km/h (0 Bft) S-SW 202 8,7 C 9,6 C 2,1 km/h (1 Bft)
09.10.2013 23:10 9,4 C 95 % 1017,9 hPa 0,0 l/m 0,5 km/h (0 Bft) O 90 8,6 C 9,5 C 2,4 km/h (1 Bft)
09.10.2013 23:15 9,2 C 95 % 1017,9 hPa 0,0 l/m 0,6 km/h (0 Bft) SO 135 8,4 C 9,4 C 2,4 km/h (1 Bft)
09.10.2013 23:19 9,0 C 95 % 1017,9 hPa 0,0 l/m 0,8 km/h (0 Bft) O-NO 67 8,2 C 9,2 C 1,8 km/h (1 Bft)
09.10.2013 23:20 9,0 C 95 % 1017,9 hPa 0,0 l/m 0,8 km/h (0 Bft) O-NO 67 8,2 C 9,2 C 1,8 km/h (1 Bft)
09.10.2013 23:25 8,7 C 95 % 1017,5 hPa 0,0 l/m 1,4 km/h (1 Bft) NO 45 7,9 C 8,9 C 3,9 km/h (1 Bft)
09.10.2013 23:30 8,6 C 95 % 1017,5 hPa 0,0 l/m 1,8 km/h (1 Bft) O-SO 112 7,8 C 8,7 C 2,4 km/h (1 Bft)
09.10.2013 23:35 8,3 C 95 % 1017,5 hPa 0,0 l/m 2,4 km/h (1 Bft) NO 45 7,5 C 8,6 C 1,9 km/h (1 Bft)
09.10.2013 23:40 8,2 C 95 % 1017,5 hPa 0,0 l/m 1,6 km/h (1 Bft) N-NO 22 7,4 C 8,3 C 0,0 km/h (0 Bft)
09.10.2013 23:45 7,9 C 95 % 1017,1 hPa 0,0 l/m 0,6 km/h (0 Bft) O-NO 67 7,1 C 8,0 C 0,0 km/h (0 Bft)
09.10.2013 23:50 7,9 C 95 % 1017,1 hPa 0,0 l/m 0,8 km/h (0 Bft) O 90 7,1 C 7,8 C 2,1 km/h (1 Bft)
09.10.2013 23:55 7,9 C 95 % 1017,1 hPa 0,0 l/m 1,1 km/h (1 Bft) NO 45 7,1 C 7,7 C 3,7 km/h (1 Bft)
_ Min-Zeit 23:55 15:00 23:55 - 21:30 - - 23:55 23:55 23:45
Minimum _ 7,9 C 75 % 1017,1 hPa - 0,0 km/h (0 Bft) - - 7,1 C 7,7 C 0,0 km/h (0 Bft)
_ Max-Zeit 14:00 23:55 00:20 18:15 15:05 - - 13:55 13:45 15:05
Maximum _ 14,2 C 95 % 1025,1 hPa 0,7 l/m 4,2 km/h
W-SW (1 Bft)
- - 11,5 C 15,7 C 12,9 km/h
W-SW (3 Bft)
Durchschnitt _ 10,5 C 91 % 1021,9 hPa #1,4 l/m 0,5 km/h (0 Bft) W-SW - 9,0 C 10,9 C 0,9 km/h (0 Bft)